This demonstration page uses our WeatherBlox Daily Observations layout. Learn more.

Left ArrowRight Arrow

Hourly Observations for May 3, 2017

Temp ( °F °C ) Dew Point ( °F °C ) Humidity (%) Winds ( mph kmh ) Pressure ( in mb ) Visibility ( mi km ) Precip ( " mm )
12:56 am 00:56 Clear with Mist and Fog 47 8.2 44 6.5 89 89 Calm 30.04 1017 4 6 0.00 0.00
1:27 am 01:27 Clear with Mist and Fog 45 7 41 5 87 87 Calm 30.04 1017 3 4 0.00 0.00
1:31 am 01:31 Clear with Mist and Fog 45 7 41 5 87 87 Calm 30.02 1017 3 5 0.00 0.00
1:56 am 01:56 Hazy 45 7 40 4.7 85 85 Calm 30.02 1017 5 8 0.00 0.00
2:56 am 02:56 Mostly Clear 43 6.3 40 4.5 88 88 E 3 6 30.01 1016 10 16 0.00 0.00
3:56 am 03:56 Clear 42 5.6 40 4.2 91 91 E 5 7 30.01 1016 10 16 0.00 0.00
4:56 am 04:56 Clear 42 5.8 38 3.6 86 86 E 6 9 30.01 1016 10 16 0.00 0.00
5:56 am 05:56 Mostly Clear 41 5.1 39 3.8 91 91 E 5 7 30.04 1017 10 16 0.00 0.00
6:56 am 06:56 Cloudy 45 7.1 38 3.5 78 78 E 7 11 30.04 1017 10 16 0.00 0.00
7:56 am 07:56 Cloudy 51 10.4 40 4.7 68 68 Calm 30.07 1018 7 11 0.00 0.00
8:06 am 08:06 Cloudy with Haze 52 11 41 5 67 67 SSE 3 6 30.07 1018 3 4 0.00 0.00
8:56 am 08:56 Mostly Cloudy 53 11.7 41 4.9 63 63 ESE 9 15 30.09 1019 10 16 0.00 0.00
9:56 am 09:56 Partly Cloudy 57 14 42 5.4 56 56 ESE 10 17 30.07 1018 10 16 0.00 0.00
10:56 am 10:56 Sunny 60 15.8 43 6 52 52 SE 9 15 30.06 1018 10 16 0.00 0.00
11:56 am 11:56 Sunny 63 17.2 42 5.8 47 47 SSE 13 20 30.05 1018 10 16 0.00 0.00
12:56 pm 12:56 Sunny 64 17.8 42 5.4 44 44 Calm 30.04 1017 10 16 0.00 0.00
1:56 pm 13:56 Partly Cloudy 65 18.3 44 6.5 46 46 ESE 9 15 30.02 1017 10 16 0.00 0.00
2:56 pm 14:56 Mostly Cloudy 63 17.1 42 5.7 47 47 SE 9 15 30.02 1017 10 16 0.00 0.00
3:56 pm 15:56 Mostly Cloudy 61 15.9 42 5.5 50 50 ESE 7 11 30.03 1017 10 16 0.00 0.00
4:19 pm 16:19 Mostly Cloudy with Light Rain 61 16 43 6 52 52 WNW 13 20 30.04 1017 10 16 0.00 0.00
4:56 pm 16:56 Partly Cloudy with Light Rain 56 13.4 51 10.4 82 82 WNW 8 13 30.06 1018 10 16 0.00 0.03
5:12 pm 17:12 Sunny 55 13 52 11 88 88 W 6 9 30.07 1018 10 16 0.00 0.00
5:19 pm 17:19 Partly Cloudy with Light Rain 55 13 52 11 88 88 W 6 9 30.07 1018 9 14 0.00 0.00
5:56 pm 17:56 Mostly Cloudy with Light Rain 56 13.1 51 10.5 84 84 W 6 9 30.08 1019 10 16 0.01 0.25
6:15 pm 18:15 Cloudy 55 13 50 10 82 82 W 3 6 30.08 1019 10 16 0.00 0.00
6:56 pm 18:56 Mostly Cloudy 57 13.9 49 9.3 74 74 W 3 6 30.07 1018 10 16 0.00 0.03
7:56 pm 19:56 Partly Cloudy 55 12.6 49 9.4 81 81 W 5 7 30.06 1018 10 16 0.00 0.00
8:56 pm 20:56 Mostly Cloudy 50 10 46 7.9 87 87 WNW 5 7 30.06 1018 10 16 0.00 0.00
9:56 pm 21:56 Cloudy 50 10.1 47 8.5 90 90 WNW 6 9 30.09 1019 10 16 0.00 0.00
10:56 pm 22:56 Cloudy 53 11.4 48 9.1 86 86 NW 6 9 30.12 1020 10 16 0.00 0.00
11:56 pm 23:56 Mostly Clear 52 10.9 46 7.9 82 82 NNW 5 7 30.12 1020 10 16 0.00 0.00

Powered by AerisWeather